Weather History for Hyannis, MA

Change the Weather History Date:

Tuesday, August 6, 2013

  Actual Average Record
Temperature  
Mean Temperature 62 °F -  
Max Temperature 75 °F 78 °F 89 °F (1931)
Min Temperature 50 °F 61 °F 44 °F (1953)
Degree Days  
Heating Degree Days 2    
Growing Degree Days 12 (Base 50)    
Moisture  
Dew Point 53 °F    
Average Humidity 69    
Maximum Humidity 93    
Minimum Humidity 33    
Precipitation  
Precipitation 0.00 in - - ()
Sea Level Pressure  
Sea Level Pressure 30.11 in    
Wind  
Wind Speed 1 mph (East)    
Max Wind Speed 8 mph    
Max Gust Speed -    
Visibility 10 miles    
Events      
Averages and records for this station are not official NWS values.
T = Trace of Precipitation, MM = Missing Value Source: NWS Daily Summary

Daily Weather History Graph

Daily Weather History Graph

Search for Another Location

Airport:

Trip Planner

Search our weather history database for the weather conditions in past years. The results will help you decide how hot, cold, wet, or windy it might be!

Date:

Astronomy

Aug. 06, 2013 Rise Set
Actual Time 5:40 AM EDT 7:52 PM EDT
Civil Twilight 5:09 AM EDT 8:23 PM EDT
Nautical Twilight 4:31 AM EDT 9:01 PM EDT
Astronomical Twilight 3:50 AM EDT 9:42 PM EDT
Moon 5:29 AM EDT (8/6) 7:24 PM EDT (8/6)
Length of Visible Light 15h 13m
Length of Day
14h 12m
Waning Crescent, 0% of the Moon is Illuminated
Aug 6
Waning Crescent
Aug 6
New
Aug 14
First Quarter
Aug 20
Full
Aug 28
Last Quarter

Hourly Weather History & Observations

Time (EDT) Temp. Dew Point Humidity Pressure Visibility Wind Dir Wind Speed Gust Speed Precip Events Conditions
12:56 AM 53.1 °F 51.1 °F 93% 30.03 in 10.0 mi Calm Calm - N/A   Clear
1:56 AM 54.0 °F 52.0 °F 93% 30.04 in 10.0 mi Calm Calm - N/A   Clear
2:56 AM 52.0 °F 50.0 °F 93% 30.04 in 10.0 mi Calm Calm - N/A   Clear
3:56 AM 53.1 °F 50.0 °F 89% 30.05 in 10.0 mi Calm Calm - N/A   Clear
4:56 AM 51.1 °F 48.0 °F 89% 30.06 in 10.0 mi Calm Calm - N/A   Clear
5:56 AM 50.0 °F 48.0 °F 93% 30.08 in 10.0 mi Calm Calm - N/A   Clear
6:56 AM 55.0 °F 52.0 °F 89% 30.09 in 10.0 mi Calm Calm - N/A   Clear
7:56 AM 68.0 °F 59.0 °F 73% 30.11 in 10.0 mi Calm Calm - N/A   Clear
8:56 AM 70.0 °F 55.0 °F 59% 30.12 in 10.0 mi Calm Calm - N/A   Clear
9:56 AM 73.0 °F 51.1 °F 46% 30.12 in 10.0 mi Calm Calm - N/A   Clear
10:56 AM 73.9 °F 53.1 °F 48% 30.12 in 10.0 mi North 4.6 mph - N/A   Clear
11:56 AM 73.9 °F 51.1 °F 45% 30.13 in 10.0 mi NNW 6.9 mph - N/A   Clear
12:56 PM 75.9 °F 45.0 °F 33% 30.13 in 10.0 mi ENE 3.5 mph - N/A   Clear
1:56 PM 75.0 °F 55.0 °F 50% 30.14 in 10.0 mi Variable 6.9 mph - N/A   Partly Cloudy
2:56 PM 73.9 °F 54.0 °F 50% 30.14 in 10.0 mi Variable 6.9 mph - N/A   Clear
3:56 PM 73.0 °F 52.0 °F 48% 30.14 in 10.0 mi SSE 8.1 mph - N/A   Clear
4:56 PM 73.0 °F 53.1 °F 49% 30.13 in 10.0 mi Variable 4.6 mph - N/A   Clear
5:56 PM 72.0 °F 54.0 °F 53% 30.14 in 10.0 mi SE 5.8 mph - N/A   Clear
6:56 PM 70.0 °F 55.9 °F 61% 30.14 in 10.0 mi SSE 4.6 mph - N/A   Clear
7:56 PM 66.9 °F 55.9 °F 68% 30.15 in 10.0 mi Calm Calm - N/A   Clear
8:56 PM 66.0 °F 55.0 °F 68% 30.17 in 10.0 mi Calm Calm - N/A   Clear
9:56 PM 61.0 °F 55.9 °F 83% 30.16 in 10.0 mi Calm Calm - N/A   Clear
10:56 PM 57.9 °F 55.0 °F 90% 30.15 in 10.0 mi Calm Calm - N/A   Clear
11:56 PM 57.0 °F 54.0 °F 89% 30.15 in 10.0 mi Calm Calm - N/A   Clear